Time,TemperatureF,DewpointF,PressureIn,WindDirection,WindDirectionDegrees,WindSpeedMPH,WindSpeedGustMPH,Humidity,HourlyPrecipIn,Conditions,Clouds,dailyrainin,SoftwareType,DateUTC
2013-08-06 00:06:00,83.8,79.0,30.00,WNW,303,2.0,2.0,86,0.00,,,0.00,weatherlink.com 1.10,2013-08-06 04:06:00,
2013-08-06 00:21:00,84.3,80.0,30.00,WNW,300,0.0,1.0,86,0.00,,,0.00,weatherlink.com 1.10,2013-08-06 04:21:00,
2013-08-06 00:36:00,81.2,77.0,30.00,NW,312,1.0,5.0,87,0.01,,,0.01,weatherlink.com 1.10,2013-08-06 04:36:00,
2013-08-06 00:51:00,78.8,76.0,30.00,NW,314,0.0,2.0,92,0.02,,,0.02,weatherlink.com 1.10,2013-08-06 04:51:00,
2013-08-06 01:07:00,78.0,76.0,29.99,NW,309,0.0,0.0,94,0.02,,,0.02,weatherlink.com 1.10,2013-08-06 05:07:00,
2013-08-06 01:22:00,77.8,77.0,29.97,WNW,287,0.0,2.0,96,0.02,,,0.02,weatherlink.com 1.10,2013-08-06 05:22:00,
2013-08-06 01:37:00,77.9,77.0,29.95,NW,318,0.0,0.0,96,0.01,,,0.02,weatherlink.com 1.10,2013-08-06 05:37:00,
2013-08-06 01:52:00,77.6,76.0,29.94,NW,318,0.0,0.0,96,0.00,,,0.02,weatherlink.com 1.10,2013-08-06 05:52:00,
2013-08-06 02:07:00,77.9,77.0,29.94,NW,318,0.0,0.0,97,0.00,,,0.02,weatherlink.com 1.10,2013-08-06 06:07:00,
2013-08-06 02:22:00,77.9,77.0,29.94,North,360,1.0,5.0,97,0.00,,,0.02,weatherlink.com 1.10,2013-08-06 06:22:00,
2013-08-06 02:37:00,77.7,77.0,29.93,North,7,0.0,1.0,96,0.00,,,0.02,weatherlink.com 1.10,2013-08-06 06:37:00,
2013-08-06 02:52:00,78.2,76.0,29.93,NW,309,0.0,3.0,94,0.00,,,0.02,weatherlink.com 1.10,2013-08-06 06:52:00,
2013-08-06 03:07:00,77.7,76.0,29.92,NW,309,0.0,0.0,95,0.00,,,0.02,weatherlink.com 1.10,2013-08-06 07:07:00,
2013-08-06 03:22:00,77.2,76.0,29.91,NW,309,0.0,0.0,96,0.00,,,0.02,weatherlink.com 1.10,2013-08-06 07:22:00,
2013-08-06 03:37:00,77.1,76.0,29.91,NW,309,0.0,0.0,97,0.00,,,0.02,weatherlink.com 1.10,2013-08-06 07:37:00,
2013-08-06 03:52:00,77.2,77.0,29.91,NW,309,0.0,0.0,98,0.00,,,0.02,weatherlink.com 1.10,2013-08-06 07:52:00,
2013-08-06 04:07:00,77.6,77.0,29.91,NW,309,1.0,1.0,98,0.00,,,0.02,weatherlink.com 1.10,2013-08-06 08:07:00,
2013-08-06 04:22:00,77.8,77.0,29.91,NW,309,0.0,0.0,98,0.00,,,0.02,weatherlink.com 1.10,2013-08-06 08:22:00,
2013-08-06 04:37:00,77.8,77.0,29.92,NW,309,0.0,0.0,98,0.00,,,0.02,weatherlink.com 1.10,2013-08-06 08:37:00,
2013-08-06 04:52:00,77.7,77.0,29.92,NW,309,0.0,0.0,99,0.00,,,0.02,weatherlink.com 1.10,2013-08-06 08:52:00,
2013-08-06 05:07:00,77.7,77.0,29.92,NW,309,0.0,0.0,99,0.00,,,0.02,weatherlink.com 1.10,2013-08-06 09:07:00,
2013-08-06 05:22:00,77.6,77.0,29.92,NW,309,0.0,0.0,99,0.00,,,0.02,weatherlink.com 1.10,2013-08-06 09:22:00,
2013-08-06 05:37:00,77.5,77.0,29.92,NW,309,0.0,0.0,99,0.00,,,0.02,weatherlink.com 1.10,2013-08-06 09:37:00,
2013-08-06 05:52:00,77.5,77.0,29.92,NW,309,0.0,0.0,99,0.00,,,0.02,weatherlink.com 1.10,2013-08-06 09:52:00,
2013-08-06 06:07:00,77.2,77.0,29.92,NW,309,0.0,0.0,99,0.00,,,0.02,weatherlink.com 1.10,2013-08-06 10:07:00,
2013-08-06 06:22:00,77.3,77.0,29.92,NW,309,0.0,0.0,99,0.00,,,0.02,weatherlink.com 1.10,2013-08-06 10:22:00,
2013-08-06 06:40:00,77.4,77.0,29.93,NW,309,0.0,0.0,100,0.00,,,0.02,weatherlink.com 1.10,2013-08-06 10:40:00,
2013-08-06 06:58:00,77.4,77.0,29.93,NW,310,0.0,0.0,100,0.00,,,0.02,weatherlink.com 1.10,2013-08-06 10:58:00,
2013-08-06 07:16:00,77.6,78.0,29.94,NW,309,0.0,0.0,100,0.00,,,0.02,weatherlink.com 1.10,2013-08-06 11:16:00,
2013-08-06 07:38:00,78.1,78.0,29.95,NW,309,0.0,1.0,100,0.00,,,0.02,weatherlink.com 1.10,2013-08-06 11:38:00,
2013-08-06 07:54:00,79.1,79.0,29.95,NW,309,0.0,1.0,100,0.00,,,0.02,weatherlink.com 1.10,2013-08-06 11:54:00,
2013-08-06 08:12:00,81.4,80.0,29.95,NW,309,0.0,1.0,96,0.00,,,0.02,weatherlink.com 1.10,2013-08-06 12:12:00,
2013-08-06 08:32:00,84.4,81.0,29.95,NW,316,0.0,1.0,89,0.00,,,0.02,weatherlink.com 1.10,2013-08-06 12:32:00,
2013-08-06 08:50:00,84.7,81.0,29.96,NNE,32,1.0,3.0,88,0.00,,,0.02,weatherlink.com 1.10,2013-08-06 12:50:00,
2013-08-06 09:08:00,86.2,81.0,29.97,NE,35,0.0,4.0,85,0.00,,,0.02,weatherlink.com 1.10,2013-08-06 13:08:00,
2013-08-06 09:25:00,87.3,81.0,29.97,NNE,23,2.0,3.0,81,0.00,,,0.02,weatherlink.com 1.10,2013-08-06 13:25:00,
2013-08-06 09:40:00,87.8,80.0,29.98,NNW,334,1.0,2.0,78,0.00,,,0.02,weatherlink.com 1.10,2013-08-06 13:40:00,
2013-08-06 09:55:00,88.9,80.0,29.98,North,354,0.0,3.0,76,0.00,,,0.02,weatherlink.com 1.10,2013-08-06 13:55:00,
2013-08-06 10:10:00,89.5,80.0,29.98,North,352,2.0,2.0,73,0.00,,,0.02,weatherlink.com 1.10,2013-08-06 14:10:00,
2013-08-06 10:25:00,89.7,80.0,29.98,NNW,329,0.0,2.0,74,0.00,,,0.02,weatherlink.com 1.10,2013-08-06 14:25:00,
2013-08-06 10:40:00,89.5,80.0,29.98,NNW,330,0.0,2.0,73,0.00,,,0.02,weatherlink.com 1.10,2013-08-06 14:40:00,
2013-08-06 10:55:00,87.9,80.0,29.99,NW,323,0.0,1.0,77,0.00,,,0.02,weatherlink.com 1.10,2013-08-06 14:55:00,
2013-08-06 11:10:00,87.2,80.0,29.99,NW,317,1.0,1.0,78,0.00,,,0.02,weatherlink.com 1.10,2013-08-06 15:10:00,
2013-08-06 11:25:00,87.5,80.0,29.99,SE,124,2.0,5.0,78,0.00,,,0.02,weatherlink.com 1.10,2013-08-06 15:25:00,
2013-08-06 11:40:00,88.7,79.0,29.98,ESE,104,4.0,8.0,74,0.00,,,0.02,weatherlink.com 1.10,2013-08-06 15:40:00,
2013-08-06 11:55:00,87.9,79.0,29.98,SE,141,0.0,5.0,74,0.00,,,0.02,weatherlink.com 1.10,2013-08-06 15:55:00,
2013-08-06 12:10:00,85.4,80.0,29.98,ENE,63,1.0,6.0,83,0.01,,,0.03,weatherlink.com 1.10,2013-08-06 16:10:00,
2013-08-06 12:27:00,84.8,80.0,29.98,SE,130,2.0,5.0,84,0.01,,,0.03,weatherlink.com 1.10,2013-08-06 16:27:00,
2013-08-06 12:45:00,84.8,79.0,29.98,SSW,195,1.0,3.0,83,0.01,,,0.03,weatherlink.com 1.10,2013-08-06 16:45:00,
2013-08-06 13:03:00,87.8,81.0,29.98,WSW,250,0.0,1.0,79,0.00,,,0.03,weatherlink.com 1.10,2013-08-06 17:03:00,
2013-08-06 13:23:00,89.1,81.0,29.97,SW,214,0.0,4.0,78,0.00,,,0.03,weatherlink.com 1.10,2013-08-06 17:23:00,
2013-08-06 13:41:00,89.7,81.0,29.96,WSW,243,1.0,4.0,76,0.00,,,0.03,weatherlink.com 1.10,2013-08-06 17:41:00,
2013-08-06 13:59:00,92.3,81.0,29.95,SW,225,1.0,5.0,70,0.00,,,0.03,weatherlink.com 1.10,2013-08-06 17:59:00,
2013-08-06 14:17:00,93.4,80.0,29.94,West,272,2.0,4.0,66,0.00,,,0.03,weatherlink.com 1.10,2013-08-06 18:17:00,
2013-08-06 14:37:00,93.6,81.0,29.94,SSW,210,2.0,7.0,67,0.00,,,0.03,weatherlink.com 1.10,2013-08-06 18:37:00,
2013-08-06 14:55:00,94.0,81.0,29.94,SW,223,2.0,5.0,67,0.00,,,0.03,weatherlink.com 1.10,2013-08-06 18:55:00,
2013-08-06 15:13:00,93.2,79.0,29.94,WSW,248,2.0,5.0,64,0.00,,,0.03,weatherlink.com 1.10,2013-08-06 19:13:00,
2013-08-06 15:33:00,90.8,80.0,29.95,SW,223,2.0,8.0,70,0.00,,,0.03,weatherlink.com 1.10,2013-08-06 19:33:00,
2013-08-06 15:51:00,84.6,76.0,29.95,NE,41,3.0,7.0,76,0.00,,,0.03,weatherlink.com 1.10,2013-08-06 19:51:00,
2013-08-06 16:09:00,83.4,75.0,29.95,NNE,31,1.0,7.0,75,0.00,,,0.03,weatherlink.com 1.10,2013-08-06 20:09:00,
2013-08-06 16:29:00,78.5,75.0,29.95,NW,311,1.0,4.0,90,0.18,,,0.21,weatherlink.com 1.10,2013-08-06 20:29:00,
2013-08-06 16:47:00,77.7,76.0,29.94,WNW,291,0.0,4.0,93,0.28,,,0.31,weatherlink.com 1.10,2013-08-06 20:47:00,
2013-08-06 17:05:00,79.3,78.0,29.93,WNW,291,0.0,1.0,97,0.28,,,0.31,weatherlink.com 1.10,2013-08-06 21:05:00,
2013-08-06 17:23:00,80.8,79.0,29.92,NW,308,1.0,4.0,95,0.18,,,0.31,weatherlink.com 1.10,2013-08-06 21:23:00,
2013-08-06 17:43:00,82.0,80.0,29.93,NW,316,1.0,4.0,92,0.00,,,0.31,weatherlink.com 1.10,2013-08-06 21:43:00,
2013-08-06 18:00:00,82.5,80.0,29.93,NW,324,1.0,4.0,93,0.00,,,0.31,weatherlink.com 1.10,2013-08-06 22:00:00,
2013-08-06 18:20:00,83.0,80.0,29.93,NNW,333,2.0,4.0,91,0.00,,,0.31,weatherlink.com 1.10,2013-08-06 22:20:00,
2013-08-06 18:38:00,82.8,80.0,29.94,NNW,345,2.0,4.0,90,0.00,,,0.31,weatherlink.com 1.10,2013-08-06 22:38:00,
2013-08-06 18:56:00,82.5,78.0,29.94,NW,321,4.0,4.0,86,0.00,,,0.31,weatherlink.com 1.10,2013-08-06 22:56:00,
2013-08-06 19:14:00,82.2,78.0,29.94,NNW,333,1.0,3.0,86,0.00,,,0.31,weatherlink.com 1.10,2013-08-06 23:14:00,
2013-08-06 19:34:00,82.2,78.0,29.93,NNW,327,0.0,2.0,87,0.00,,,0.31,weatherlink.com 1.10,2013-08-06 23:34:00,
2013-08-06 19:52:00,81.9,78.0,29.93,NW,323,1.0,1.0,87,0.00,,,0.31,weatherlink.com 1.10,2013-08-06 23:52:00,
2013-08-06 20:08:00,81.7,78.0,29.94,NNE,17,0.0,1.0,88,0.00,,,0.31,weatherlink.com 1.10,2013-08-07 00:08:00,
2013-08-06 20:23:00,81.4,78.0,29.94,SE,139,0.0,3.0,89,0.00,,,0.31,weatherlink.com 1.10,2013-08-07 00:23:00,
2013-08-06 20:38:00,80.8,78.0,29.94,SE,139,0.0,0.0,90,0.00,,,0.31,weatherlink.com 1.10,2013-08-07 00:38:00,
2013-08-06 20:53:00,80.7,78.0,29.95,SE,134,0.0,0.0,91,0.00,,,0.31,weatherlink.com 1.10,2013-08-07 00:53:00,
2013-08-06 21:08:00,80.5,78.0,29.95,NW,318,0.0,2.0,92,0.00,,,0.31,weatherlink.com 1.10,2013-08-07 01:08:00,
2013-08-06 21:23:00,80.5,78.0,29.96,NW,315,0.0,0.0,92,0.00,,,0.31,weatherlink.com 1.10,2013-08-07 01:23:00,
2013-08-06 21:38:00,80.2,78.0,29.97,NW,309,0.0,1.0,92,0.00,,,0.31,weatherlink.com 1.10,2013-08-07 01:38:00,
2013-08-06 21:53:00,80.2,78.0,29.96,NW,314,0.0,0.0,92,0.00,,,0.31,weatherlink.com 1.10,2013-08-07 01:53:00,
2013-08-06 22:08:00,80.0,78.0,29.97,NW,318,0.0,2.0,92,0.00,,,0.31,weatherlink.com 1.10,2013-08-07 02:08:00,
2013-08-06 22:23:00,80.2,77.0,29.97,NW,311,0.0,1.0,91,0.00,,,0.31,weatherlink.com 1.10,2013-08-07 02:23:00,
2013-08-06 22:38:00,80.1,77.0,29.98,NNW,338,0.0,3.0,91,0.00,,,0.31,weatherlink.com 1.10,2013-08-07 02:38:00,
2013-08-06 22:53:00,80.1,76.0,29.98,NNW,340,0.0,2.0,88,0.00,,,0.31,weatherlink.com 1.10,2013-08-07 02:53:00,
2013-08-06 23:08:00,80.0,76.0,29.98,North,353,0.0,3.0,88,0.00,,,0.31,weatherlink.com 1.10,2013-08-07 03:08:00,
2013-08-06 23:23:00,79.7,76.0,29.97,North,352,0.0,0.0,89,0.00,,,0.31,weatherlink.com 1.10,2013-08-07 03:23:00,
2013-08-06 23:38:00,79.1,76.0,29.96,North,352,0.0,0.0,90,0.00,,,0.31,weatherlink.com 1.10,2013-08-07 03:38:00,
2013-08-06 23:53:00,78.7,76.0,29.96,North,352,0.0,0.0,92,0.00,,,0.31,weatherlink.com 1.10,2013-08-07 03:53:00,